www.pogodaiklimat.ru

Погода и климат >> Архив погоды >> Южная Африка >> Слангкоп


ПОГОДА на Слангкопе

  • Прогноз погоды на Слангкопе
  • Монитор погоды на Слангкопе

АРХИВ ПОГОДЫ на Слангкопе

Время (UTC), дата Ветер
(напр.,м/с)
 
Видим.   Явления Облачность Т
(С)
Тd
(С)
f
(%)
Тe
(С)
Тes
(С)
Комфортность P
(гПа)
Po
(гПа)
Тmin
(С)
Tmax
(С)
R
(мм)
R24
(мм)
S
(см)
21 15.08 ЮВ 6 н/о н/о +13.3 +10.8 85 +11 +11 1025.1 1024.2 +12.6 +16.4
00 16.08 ЮВ 3 н/о н/о +12.8 +9.4 80 +11 +11 1024.4 1023.5 +12.6 +16.4
03 16.08 ЮВ 4 н/о н/о +12.5 +8.9 79 +11 +11 1024.2 1023.3 +12.5 +16.4
06 16.08 ЮВ 4 20 км 10/10 200 м
[Sc]
+14.2 +10.2 77 +13 +13 1025.7 1024.8 +12.5
09 16.08 ЮВ 5 н/о н/о +16.4 +10.9 70 +15 +15 1026.8 1025.9 +12.5 +17.1
12 16.08 Ю 5 20 км 4/4 200 м
[Cu med, cong]
+16.4 +11.6 73 +15 +18 1025.8 1024.9 +12.5 +17.4
15 16.08 ЮВ 7 н/о н/о +16.9 +10.8 67 +16 +16 1025.8 1024.9 +16.2 +17.4
18 16.08 ЮВ 7 н/о н/о +15.2 +10.6 74 +13 +13 1026.1 1025.2 +15.2 +17.4
21 16.08 ЮВ 11 н/о н/о +14.7 +11.3 80 +12 +12 1025.3 1024.4 +14.6 +17.4
00 17.08 ЮВ 8 н/о н/о +14.7 +9.5 71 +13 +13 1023.9 1023.0 +14.4 +17.4
03 17.08 ЮВ 7 н/о н/о +14.7 +9.7 72 +13 +13 1022.2 1021.3 +14.1 +17.4
06 17.08 Ю 7 24 км ясно +14.7 +8.7 67 +13 +13 1021.6 1020.7 +14.0
09 17.08 В 4 н/о н/о +20.0 +7.8 45 +21 +21 комфорт 1020.7 1019.8 +14.0 +20.0
12 17.08 ЮВ 3 н/о н/о +19.4 +9.7 53 +21 +21 комфорт 1018.3 1017.4 +14.0 +22.7
15 17.08 ЮВ 5 н/о н/о +20.5 +9.2 48 +22 +22 комфорт 1016.9 1016.0 +19.5 +22.7
18 17.08 ЮВ 3 н/о н/о +14.8 +10.6 76 +14 +14 1016.3 1015.4 +14.7 +22.7
21 17.08 ЮВ 1 н/о н/о +13.6 +10.0 79 +14 +14 1015.2 1014.3 +13.0 +22.7
00 18.08 С 3 н/о н/о +11.7 +8.2 79 +10 +10 1013.9 1013.0 +11.4 +22.7
03 18.08 С 3 н/о н/о +14.2 +11.5 84 +13 +13 1013.5 1012.6 +11.3 +22.7
06 18.08 СЗ 5 20 км 3/3 200 м
[Cu med, cong]
+14.5 +12.0 85 +13 +13 1015.7 1014.8 +11.3
09 18.08 С 4 н/о н/о +16.6 +12.9 79 +16 +16 1017.6 1016.7 +11.3 +16.8
12 18.08 С 3 н/о н/о +17.2 +12.5 74 +17 +17 1018.2 1017.3 +11.3 +18.2
15 18.08 ЮЗ 3 н/о н/о +16.6 +12.4 76 +16 +16 1020.1 1019.2 +16.3 +18.2
18 18.08 С 1 н/о н/о +14.4 +11.2 81 +15 +15 1022.1 1021.2 +14.2 +18.2
21 18.08 СЗ 3 н/о н/о +14.2 +11.2 82 +13 +13 1023.9 1023.0 +14.1 +18.2
00 19.08 ЮЗ 7 н/о н/о +14.3 +8.7 69 +12 +12 1026.1 1025.2 +14.1 +18.2
03 19.08 Ю 7 н/о н/о +14.2 +7.3 63 +12 +12 1027.1 1026.2 +14.0 +18.2
06 19.08 Ю 5 20 км 6/6 200 м
[Sc]
+13.9 +7.7 66 +12 +12 1028.6 1027.7 +11.9
09 19.08 Ю 6 н/о н/о +15.1 +7.7 61 +14 +14 1031.5 1030.6 +11.9 +15.3
12 19.08 Ю 2 20 км 8/8 200 м
[Sc]
+16.4 +8.4 59 +17 +18 1030.7 1029.8 +11.9 +17.0
15 19.08 Ю 4 н/о н/о +15.4 +9.1 66 +15 +15 1031.1 1030.2 +15.4 +17.0
18 19.08 ЮВ 4 20 км 3/3 200 м
[Cu med, cong]
+13.4 +8.5 72 +12 +12 1032.0 1031.1 +13.0 +17.0
21 19.08 ЮВ 4 н/о н/о +13.1 +8.4 73 +12 +12 1032.1 1031.2 +12.7 +17.0
00 20.08 ЮВ 5 н/о н/о +13.2 +8.3 72 +11 +11 1032.0 1031.1 +12.4 +17.0
03 20.08 ЮВ 5 н/о н/о +12.9 +7.6 70 +11 +11 1031.0 1030.1 +12.4 +17.0
06 20.08 ЮВ 4 24 км ясно +12.7 +7.2 69 +11 +11 1031.0 1030.1 +11.7
09 20.08 ЮВ 9 н/о н/о +16.4 +6.8 53 +15 +15 1031.1 1030.2 +11.7 +16.6
12 20.08 ЮВ 10 24 км ясно +15.7 +9.4 66 +14 +14 1029.1 1028.2 +11.7 +16.9
15 20.08 ЮВ 9 н/о н/о +15.8 +9.5 66 +14 +14 1028.3 1027.4 +15.0 +16.9
18 20.08 ЮВ 8 н/о н/о +13.5 +9.2 75 +11 +11 1028.3 1027.4 +13.5 +16.9
21 20.08 ЮВ 3 н/о н/о +12.7 +8.4 75 +11 +11 1027.7 1026.8 +12.5 +16.9
00 21.08 ЮВ 3 н/о н/о +13.8 +6.4 61 +13 +13 1025.9 1025.0 +11.5 +16.9
03 21.08 Ю 2 н/о н/о +11.5 +7.4 76 +11 +11 1024.0 1023.1 +11.0 +16.9
06 21.08 С 1 24 км ясно +9.4 +5.6 77 +9 +10 1023.9 1023.0 +8.7
09 21.08 ЮЗ 1 н/о н/о +15.7 +11.1 74 +16 +16 1023.8 1022.9 +8.7 +15.7
12 21.08 Ю 4 24 км ясно +15.8 +11.6 76 +15 +22 1021.8 1020.9 +8.7 +16.6
15 21.08 ЮВ 4 н/о н/о +17.0 +7.9 55 +17 +17 1020.7 1019.8 +15.7 +17.1
18 21.08 С 3 20 км 4/0
[Cs]
+13.4 +7.6 68 +13 +13 1020.6 1019.7 +13.3 +17.2
21 21.08 Ю 3 н/о н/о +13.4 +7.8 69 +13 +13 1020.5 1019.6 +10.7 +17.2
00 22.08 Ю 3 н/о н/о +11.0 +5.5 69 +9 +9 1020.7 1019.8 +10.7 +17.2
03 22.08 Ю 2 н/о н/о +10.4 +6.7 78 +9 +9 1020.0 1019.1 +9.5 +17.2
06 22.08 ЮВ 2 20 км 5/0
[Cs]
+11.2 +6.1 71 +10 +11 1022.0 1021.1 +9.5
09 22.08 Ю 4 н/о н/о +15.1 +12.4 84 +14 +14 1023.1 1022.2 +9.5 +15.5
12 22.08 Ю 6 24 км 4/0
[Cs]
+15.9 +12.6 81 +15 +18 1022.1 1021.2 +9.5 +16.3
15 22.08 ЮВ 6 н/о н/о +16.3 +11.9 75 +15 +15 1022.7 1021.8 +15.5 +16.5
18 22.08 ЮВ 3 н/о н/о +14.1 +10.9 81 +13 +13 1023.9 1023.0 +14.1 +16.6

 

Местоположение метеостанции Слангкоп (Южная Африка): широта -34.15 долгота 18.32 высота над уровнем моря 8 м.

В архиве по умолчанию представлена погода на Слангкопе за последнюю неделю. Архивные данные за месяц целиком и за предыдущие месяцы, начиная с января 2011 года, Вы можете получить, выбрав интересующий диапазон дат из раскрывающегося списка и нажав кнопку "Ввод!".


*Определитесь, кто Вы:
робот инопланетянин человек

Внимание! Время в таблицах - всемирное. Для получения местного времени необходимо прибавить поправку, которая равна 2 ч.

Смотрите также архив погоды в соседних городах и на ближайших метеорологических станциях:

Погода в Кейптауне (Южная Африка) (25 км)
Погода на Кейп-Пойнт (Южная Африка) (28 км)
Погода в Кейптаун порту (Южная Африка) (30 км)
Погода в Йестерпланте (Южная Африка) (32 км)
Погода в Кейптауне (Южная Африка) (33 км)
Погода в Кейптауне аэропорту АМС (Южная Африка) (33 км)
Погода на Роббенэйланде (Южная Африка) (39 км)
Погода в Странде (Южная Африка) (49 км)
Погода в Парле (Южная Африка) (77 км)
Погода в Малмсбери (Южная Африка) (85 км)

Пояснения к столбцам:

Ветер - указаны скорость ветра в м/с - средняя за 10 мин, порывы в срок и между сроками (в фигурных скобках) и направление, откуда дует ветер: С - северный, СВ - северо-восточный, В - восточный, ЮВ - юго-восточный, Ю - южный, ЮЗ - юго-западный, З - западный, СЗ - северо-западный.
Видимость - горизонтальная дальность видимости в метрах или километрах. При видимости от 1 до 10 км при отсутствии осадков обычно наблюдается дымка, при ухудшении видимости до 1 км и менее - туман. В сухую погоду видимость может ухудшаться дымом, пылью или мглою.
Явления - указаны атмосферные явления, наблюдавшиеся в срок или в последний час перед сроком; фигурными скобками обозначены явления, наблюдавшиеся между сроками (за 1-3 часа до срока); квадратными скобками обозначены град или гололедные отложения с указанием их диаметра в мм.
Облачность - указаны через наклонную черту общая и нижняя облачность в баллах и высота нижней границы облаков в метрах; квадратными скобками обозначены формы облаков: Ci - перистые, Cs - перисто-слоистые, Cc - перисто-кучевые, Ac - высококучевые, As - высокослоистые, Sc - слоисто-кучевые, Ns - слоисто-дождевые, Cu - кучевые, Cb - кучево-дождевые. Подробнее классификацию облаков см. в Атласе облаков (PDF).
T - Температура воздуха - температура, измеренная на высоте 2 м над землей.
Td - Температура точки росы - температура, при понижении до которой содержащийся в воздухе водяной пар достигнет насыщения.
f - Относительная влажность воздуха - влажноcть воздуха, измеренная на высоте 2 м над землей.
Te - Эффективная температура - температура, которую ощущает одетый по сезону человек в тени. Характеристика душности погоды. При расчете учитывается влияние влажности воздуха и скорости ветра на теплоощущения человека.
Tes - Эффективная температура на солнце - температура, которую ощущает человек, с поправкой на солнечный нагрев. Характеристика знойности погоды. Зависит от высоты солнца над горизонтом, облачности и скорости ветра. Ночью, в пасмурную погоду, а также при ветре 12 м/с и более поправка равна нулю.
P - Атмосферное давление - приведенное к уровню моря атмосферное давление.
Po - Атмосферное давление - измеренное на уровне метеостанции атмосферное давление.
Tmin - Минимальная температура - минимум температуры воздуха на высоте 2 м над землей.
Tmax - Максимальная температура - максимум температуры воздуха на высоте 2 м над землей.
R - Количество осадков - Количество выпавших осадков за период времени, мм. При наведении курсора мыши на число - период времени, за который выпало указанное количество осадков.
R24 - Количество осадков - Количество выпавших осадков за 24 часа, мм.
S - Снежный покров - Высота снежного покрова, см. При наведении курсора мыши на число - состояние снежного покрова и степень покрытия местности в баллах.